SCP
0 0 0 0 0 0 0 0 0 0 0 0 0 0 0 0 0 0 0 0 0 0 0 0 1 1 1 1 1 1 0 0 0 0 1 1 0 0 0 0 0 0 0 0
0 0 0 0 0 0 0 0 0 0 0 0 0 0 0 0 0 0 0 0 0 0 0 0 1 1 1 1 1 1 0 0 0 0 1 1 0 0 0 0 0 0 0 0
0 0 0 0 0 0 0 0 0 0 0 0 0 0 0 0 0 0 0 0 0 0 0 0 1 1 1 1 0 0 0 0 0 0 1 1 1 0 0 0 0 0 0 0
0 0 0 0 0 0 0 0 0 0 0 0 0 0 0 0 0 0 0 0 0 0 0 1 1 1 1 0 0 0 0 0 0 0 0 1 1 0 0 0 0 0 0 0
0 0 0 0 0 0 0 0 0 0 0 0 0 0 0 0 0 0 0 0 0 0 0 1 1 0 0 0 0 0 0 0 0 0 0 0 0 0 0 0 0 0 0 0
0 0 0 0 0 0 0 0 0 0 0 0 0 0 0 0 0 0 0 0 0 0 0 0 0 0 0 0 0 0 0 0 0 0 0 0 0 0 0 0 0 0 0 0
0 0 0 0 0 0 0 0 0 0 0 0 0 0 0 0 0 0 0 0 0 0 0 0 0 0 0 0 0 0 0 0 0 0 0 0 0 0 0 0 0 0 0 0
0 0 0 0 0 0 0 0 0 0 0 0 0 0 0 0 0 0 0 0 0 0 0 0 0 0 0 0 0 0 0 0 0 0 0 0 0 0 0 0 0 0 0 0
0 0 0 0 0 0 0 0 0 0 0 0 0 0 0 0 0 0 0 0 0 0 0 0 0 0 0 0 0 0 0 0 0 0 0 0 0 0 0 0 0 0 0 0
0 0 0 0 0 0 0 0 0 0 0 0 0 0 0 0 0 0 0 0 0 0 0 0 0 0 0 0 0 0 0 0 0 0 0 0 0 0 0 0 0 0 0 0
0 0 0 0 0 0 0 0 0 0 0 0 0 0 0 0 0 0 0 0 0 0 0 0 0 1 0 0 0 0 0 0 0 0 0 0 0 0 0 0 0 0 0 0
0 0 0 0 0 0 0 0 0 0 0 0 0 0 0 0 0 0 0 0 0 0 0 0 1 1 1 0 0 0 0 0 0 0 0 0 0 0 0 0 0 0 0 0
0 0 0 0 0 0 0 0 0 0 0 0 0 0 0 0 0 0 0 0 0 0 0 0 0 0 0 0 0 0 0 0 0 0 0 0 0 0 0 0 0 0 0 0
0 0 0 0 0 0 0 0 0 0 0 0 0 0 0 0 0 0 0 0 0 0 0 0 0 0 0 0 0 0 0 0 0 0 0 0 0 0 0 0 0 0 0 0
0 0 0 0 0 0 0 0 0 0 0 0 0 0 0 0 0 0 0 0 0 0 0 0 0 0 0 0 0 0 0 0 0 0 0 0 0 0 0 0 0 0 0 0
0 0 0 0 0 0 0 0 0 0 0 0 0 0 0 0 0 0 0 0 0 0 0 0 0 0 0 0 0 0 0 0 0 0 0 0 0 0 0 0 0 0 0 0
0 0 0 0 0 0 0 0 0 0 0 0 0 0 0 0 0 0 0 0 0 0 0 0 0 0 0 0 0 0 0 0 0 0 0 0 0 0 0 0 0 0 0 0
0 0 0 0 0 0 0 0 0 0 0 0 0 0 0 0 0 0 0 0 0 0 0 0 0 0 0 0 0 0 0 0 0 0 0 0 0 0 0 0 0 0 0 0
0 0 0 0 0 0 0 0 0 0 0 0 0 0 0 0 0 0 0 0 0 0 0 0 0 0 0 0 0 0 0 0 0 0 0 0 0 0 0 0 0 0 0 0
0 0 0 0 0 0 0 0 0 0 0 0 0 0 0 0 0 0 0 0 0 0 0 0 0 0 0 0 0 0 0 0 0 0 0 0 0 0 0 0 0 0 0 0
0 0 0 0 0 0 0 0 0 0 0 0 0 0 0 0 0 0 0 0 0 0 0 0 0 0 0 0 0 0 0 0 0 0 0 0 0 0 0 0 0 0 0 0
0 0 0 0 0 0 0 0 0 0 0 0 0 0 0 0 0 0 0 0 0 0 0 0 0 0 0 0 0 0 0 0 0 0 0 0 0 0 0 0 0 0 0 0
0 0 0 0 0 0 0 0 0 0 0 0 0 0 0 0 0 0 0 0 0 0 0 0 0 0 0 0 0 0 0 0 0 0 0 0 0 0 0 0 0 0 0 0
0 0 0 0 0 0 0 0 0 0 0 0 0 0 0 0 0 0 0 0 0 0 0 0 0 0 0 0 0 0 0 0 0 0 0 0 0 0 0 0 0 0 0 0
0 0 0 0 0 0 0 0 0 0 0 0 0 0 0 0 0 0 0 0 0 0 0 0 0 0 0 0 0 0 0 0 0 0 0 0 0 0 0 0 0 0 0 0
0 0 0 0 0 0 0 0 0 0 0 0 0 0 0 0 0 0 0 0 0 0 0 0 0 0 0 0 0 0 0 0 0 0 0 0 0 0 0 0 0 0 0 0
Wind_Speed
3 2 2 1 1 1 3 3 2 2 2 3 5 8 8 6 7 8 7 7 7 7 5 4 4 4 4 5 5 5 4 3 3 2 2 2 1 1 1 1 2 1 2 1
3 2 0 0 1 2 3 3 2 1 1 2 5 9 9 8 9 9 9 9 8 6 5 5 4 4 4 4 5 5 4 4 4 2 2 1 1 1 0 0 1 1 1 1
3 1 0 1 1 1 1 3 2 2 2 2 5 7 7 6 8 8 9 9 8 8 7 6 5 5 5 5 4 4 5 4 4 3 2 2 2 1 1 1 0 1 1 1
3 1 1 2 0 2 2 0 2 2 3 1 3 6 5 5 7 9 10 9 9 8 8 7 6 6 6 5 4 4 4 4 4 4 4 4 3 2 1 1 0 1 1 1
2 1 1 1 1 1 1 1 0 1 2 2 2 5 5 2 7 9 9 9 9 8 8 8 7 6 5 5 4 4 4 5 4 4 4 4 3 2 1 1 1 0 1 1
2 1 1 1 1 0 2 1 1 1 2 3 3 5 6 4 6 6 6 7 8 8 8 7 6 5 4 4 4 4 4 4 5 4 4 4 4 3 2 2 1 1 0 0
2 1 1 0 1 2 1 1 0 1 1 3 1 5 8 5 4 4 5 6 6 7 7 6 6 6 5 5 5 4 5 4 4 5 5 5 5 4 4 3 2 1 1 0
2 1 0 1 0 1 1 1 1 2 3 2 2 7 6 2 3 4 4 5 5 6 6 7 7 6 5 5 6 6 6 5 4 4 4 4 4 3 2 2 2 2 1 1
3 2 1 1 2 1 2 1 1 1 1 3 4 6 8 3 4 4 4 5 6 6 6 6 6 6 5 6 6 6 6 5 5 4 4 4 4 3 3 2 2 1 1 0
3 2 1 1 1 1 1 2 2 2 2 4 4 5 4 4 5 5 5 6 7 6 6 6 6 6 5 6 5 5 5 5 4 4 4 3 3 3 3 2 2 1 1 1
1 3 1 1 3 3 3 3 2 2 2 3 4 4 3 4 4 5 6 6 6 6 6 5 5 5 5 5 5 5 5 4 4 4 4 3 3 2 2 2 2 1 1 1
2 2 1 2 0 2 3 3 4 3 3 3 4 6 0 4 4 5 5 5 5 5 5 5 5 5 5 5 5 5 5 5 5 4 4 3 2 2 2 2 2 2 2 2
3 3 1 0 2 2 4 4 3 1 2 4 5 6 1 2 4 4 5 5 4 5 4 4 5 5 5 5 5 4 4 5 4 4 4 4 3 3 3 2 2 2 2 1
2 3 5 5 2 3 5 6 7 6 5 6 10 10 7 7 6 5 5 5 4 4 5 5 5 5 5 5 5 4 4 4 4 4 4 4 4 4 3 3 2 2 2 2
2 3 3 4 3 3 6 8 10 12 10 9 9 10 12 9 7 7 5 4 5 5 6 6 6 5 5 5 5 4 4 4 4 5 4 4 4 3 3 3 3 2 2 2
2 3 1 3 2 3 7 11 12 13 11 13 12 15 12 9 5 6 6 5 6 6 6 6 6 6 6 6 6 5 5 5 5 5 4 4 4 3 3 3 3 3 2 2
5 5 3 3 2 3 10 12 14 11 12 11 14 12 4 5 6 7 6 6 7 7 7 6 7 7 7 7 6 6 6 5 5 5 4 4 4 4 4 3 3 3 3 3
6 5 2 1 1 8 6 3 10 11 12 14 13 10 8 8 7 7 7 8 8 7 6 6 5 5 5 5 5 5 5 5 5 5 5 4 4 4 4 3 4 4 3 3
4 5 3 3 4 10 8 5 8 9 10 13 16 14 10 4 5 7 6 7 8 6 5 4 4 4 4 5 5 5 5 5 5 5 5 5 5 5 5 5 4 4 3 3
2 3 3 4 5 9 5 4 5 4 7 7 12 13 8 4 4 4 3 4 4 3 3 3 3 3 4 4 5 6 5 6 6 6 5 5 5 5 5 5 4 3 3 3
6 5 6 7 8 12 5 6 8 5 6 3 9 10 8 9 7 1 1 2 2 2 2 2 3 3 3 4 6 6 5 6 5 4 4 4 5 5 5 4 3 3 3 3
12 10 10 8 8 12 7 11 11 7 0 2 4 6 8 8 5 2 2 2 2 2 2 3 3 3 2 4 6 6 6 4 3 4 4 4 4 4 4 4 4 3 3 3
12 12 9 13 11 2 10 10 5 0 2 3 3 4 5 5 6 5 4 3 3 3 3 3 3 3 2 3 5 6 4 3 4 4 4 4 3 3 4 4 4 3 3 3
7 3 5 8 12 8 9 9 7 6 6 4 4 3 5 6 5 5 4 3 3 3 3 3 3 3 3 3 4 4 3 4 5 5 4 4 4 4 4 3 4 4 4 4
8 9 7 9 9 6 8 11 11 9 7 6 5 5 6 7 6 6 4 4 3 3 2 3 4 4 4 3 4 3 4 5 5 5 4 4 4 4 4 4 4 4 4 4
9 11 11 11 8 7 6 4 6 8 9 8 7 6 5 7 7 6 5 4 4 3 3 3 4 4 4 4 4 3 4 5 5 5 5 4 4 4 4 3 3 4 5 5
Wind_Direction
38 92 110 167 245 333 160 178 224 267 309 284 254 260 260 240 235 240 239 231 228 233 225 206 193 185 188 188 186 185 184 180 180 184 186 188 177 133 97 62 25 32 36 32
120 110 72 75 118 133 153 176 233 276 327 270 266 268 263 245 237 237 236 231 228 226 219 206 195 189 195 192 193 189 191 190 195 203 194 192 185 162 112 75 41 31 34 32
129 99 266 154 124 167 206 219 225 252 307 238 281 266 241 235 237 240 237 235 231 223 220 211 199 202 204 207 202 197 196 195 198 197 177 163 163 177 180 182 52 24 21 30
89 39 171 151 245 252 226 196 186 213 253 273 299 284 256 238 241 236 233 227 225 221 219 213 203 207 210 211 203 202 200 195 193 190 191 188 191 207 220 211 167 65 39 34
104 33 125 157 298 279 121 86 198 233 240 262 237 261 270 217 249 240 230 226 223 220 217 213 208 209 212 202 197 202 204 197 193 193 193 193 197 203 192 187 175 135 71 48
87 33 355 32 356 96 144 134 114 185 223 254 229 239 267 223 239 245 232 228 224 219 218 214 205 200 208 194 192 195 200 202 194 193 194 194 196 192 186 196 196 182 149 42
56 88 49 295 129 115 168 177 253 236 230 247 148 241 257 256 243 250 247 235 224 214 213 209 202 199 201 197 196 196 198 205 197 193 195 197 198 197 200 205 208 209 216 273
161 223 137 349 319 180 190 256 230 264 270 293 203 245 262 274 283 270 260 246 229 214 207 206 204 203 202 203 205 201 200 202 197 194 193 194 195 196 200 206 213 223 227 242
176 203 57 4 334 227 164 171 11 93 11 276 256 271 281 243 261 253 247 239 229 217 209 206 201 200 200 207 208 206 201 197 193 196 192 188 192 194 196 192 207 229 227 212
139 160 288 320 201 32 336 145 159 189 237 267 275 259 263 255 255 249 235 231 229 217 209 205 201 203 204 210 206 200 202 198 191 195 192 187 190 192 196 193 194 213 217 213
140 142 175 203 209 194 160 166 173 177 254 253 277 262 228 241 249 243 238 232 221 211 209 208 205 206 206 203 195 192 197 196 190 190 187 186 185 182 181 194 195 206 208 211
156 138 193 231 211 324 245 215 185 206 224 235 265 273 124 254 270 259 251 235 220 214 212 208 206 205 201 195 192 193 195 197 200 190 179 181 173 170 183 197 199 201 205 208
157 150 129 251 195 202 230 219 211 201 169 199 229 265 49 287 282 269 257 238 216 210 210 207 204 203 202 198 196 198 200 200 195 186 179 176 176 179 190 196 189 188 192 192
163 192 213 231 242 176 217 215 199 191 210 223 234 262 281 281 280 277 265 245 229 219 214 213 213 209 204 198 196 196 202 201 187 184 182 184 187 187 190 188 180 179 178 178
183 215 234 274 288 246 236 223 206 212 223 230 247 252 266 275 276 278 271 246 233 229 223 218 215 211 204 199 198 196 197 198 189 185 190 196 190 182 179 176 170 167 169 175
170 187 190 272 239 250 262 243 222 226 233 242 263 269 267 277 273 267 262 247 240 236 229 223 214 208 206 202 199 195 199 196 187 188 197 196 182 177 179 178 170 168 173 174
168 158 180 252 314 292 262 226 203 210 215 213 232 246 253 258 256 256 255 248 246 245 238 227 217 212 207 204 198 198 198 187 185 190 195 193 184 183 185 178 175 180 183 178
160 152 165 242 40 244 252 156 193 213 230 221 241 256 249 252 272 271 255 245 249 247 240 232 220 214 207 198 195 194 186 183 186 191 196 194 187 187 181 181 189 190 183 182
177 161 156 178 241 272 279 199 181 201 252 222 230 248 256 268 291 269 235 226 239 241 239 230 216 206 195 190 184 175 178 180 186 196 200 197 191 186 181 189 197 192 182 183
124 160 170 183 222 243 252 152 166 167 266 216 209 231 232 187 237 256 200 212 235 239 224 207 181 170 180 183 170 169 181 186 197 200 200 196 191 188 189 193 194 187 184 189
167 178 199 208 235 259 246 142 152 189 248 188 199 214 198 204 231 304 144 205 210 206 191 171 164 175 189 172 164 175 187 202 203 188 188 192 190 189 189 186 186 182 181 183
179 179 194 186 216 248 166 157 193 220 121 176 203 206 207 224 245 239 219 216 201 202 191 176 173 181 178 170 174 186 203 200 174 174 184 189 186 183 178 179 181 180 181 188
206 198 190 198 218 247 172 201 223 264 223 224 219 219 214 225 239 241 230 218 212 212 204 188 182 181 181 180 186 197 199 166 165 172 182 184 177 180 178 181 182 182 189 199
224 205 208 241 255 244 229 239 249 240 241 249 242 228 208 221 234 239 233 223 217 210 206 189 177 191 207 195 198 207 175 161 168 179 183 180 181 183 182 189 192 196 199 205
204 177 206 244 264 283 256 235 242 241 242 247 243 235 228 226 236 235 231 227 221 215 205 193 198 210 220 204 204 198 176 163 175 183 185 187 191 190 189 197 206 209 217 216
190 186 193 226 220 213 240 228 220 224 233 234 231 233 226 218 229 229 228 225 216 213 206 207 212 218 221 208 207 195 181 176 179 189 195 195 193 192 197 200 215 226 232 234